GW2805 Weather Reports


time (UTC)temp
C
wind
direction
speed
KPH
gust
KPH
rain 1hr
cm
rain 24hr
cm
rain mn
cm
humidity
%
barometer
mb
20260503211010 17 0 6.4 20.9 0.00 0.00 0.00 61 1012.9
20260503210509 17 0 6.4 25.7 0.00 0.00 0.00 60 1012.9
20260503210009 17 0 12.9 25.7 0.00 0.00 0.00 60 1013.0
20260503205507 17 0 6.4 24.1 0.00 0.00 0.00 59 1013.0
20260503205008 17 0 8.0 19.3 0.00 0.00 0.00 59 1013.0
20260503204507 18 0 3.2 17.7 0.00 0.00 0.00 60 1013.0
20260503204007 17 0 9.7 17.7 0.00 0.00 0.00 60 1013.0
20260503203508 17 0 6.4 24.1 0.00 0.00 0.00 60 1013.0
20260503203006 17 0 8.0 24.1 0.00 0.00 0.00 61 1013.0
20260503202744 17 0 8.0 19.3 0.00 0.00 0.00 61 1013.2
20260503202008 17 0 11.3 19.3 0.00 0.00 0.00 62 1013.1
20260503201744 17 0 6.4 22.5 0.00 0.00 0.00 62 1013.2
20260503201006 17 0 8.0 22.5 0.00 0.00 0.00 61 1013.2
20260503200744 17 0 14.5 22.5 0.00 0.00 0.00 61 1013.2
20260503200006 17 0 9.7 17.7 0.00 0.00 0.00 60 1013.2
20260503195505 17 0 6.4 17.7 0.00 0.00 0.00 59 1013.1
20260503195006 17 0 8.0 17.7 0.00 0.00 0.00 60 1013.2
20260503194506 17 0 4.8 17.7 0.00 0.00 0.00 60 1013.2
20260503194004 17 0 9.7 19.3 0.00 0.00 0.00 59 1013.3
20260503193742 17 0 8.0 20.9 0.00 0.00 0.00 59 1013.3
20260503193003 17 0 9.7 20.9 0.00 0.00 0.00 59 1013.3
20260503192504 17 0 6.4 17.7 0.00 0.00 0.00 60 1013.3
20260503192005 17 0 6.4 17.7 0.00 0.00 0.00 60 1013.3
20260503191505 17 0 4.8 17.7 0.00 0.00 0.00 60 1013.3
20260503191006 17 0 6.4 17.7 0.00 0.00 0.00 60 1013.4
20260503190505 17 0 6.4 17.7 0.00 0.00 0.00 59 1013.4
20260503190004 17 0 8.0 14.5 0.00 0.00 0.00 58 1013.4
20260503185505 17 0 4.8 17.7 0.00 0.00 0.00 58 1013.3
20260503185006 17 0 9.7 17.7 0.00 0.00 0.00 60 1013.3
20260503184505 17 0 6.4 19.3 0.00 0.00 0.00 58 1013.4
20260503184005 17 0 8.0 19.3 0.00 0.00 0.00 60 1013.3
20260503183526 16 0 4.8 14.5 0.00 0.00 0.00 61 1013.3
20260503183517 16 0 8.0 14.5 0.00 0.00 0.00 61 1013.2
20260503182502 16 0 4.8 17.7 0.00 0.00 0.00 61 1013.4
20260503182004 16 0 8.0 19.3 0.00 0.00 0.00 60 1013.4
20260503181504 16 0 8.0 19.3 0.00 0.00 0.00 62 1013.2
20260503181002 16 0 8.0 14.5 0.00 0.00 0.00 62 1013.3
20260503180503 16 0 6.4 14.5 0.00 0.00 0.00 61 1013.2
20260503180240 16 0 6.4 22.5 0.00 0.00 0.00 61 1013.3
20260503175502 16 0 8.0 22.5 0.00 0.00 0.00 62 1013.2
20260503175003 16 0 1.6 11.3 0.00 0.00 0.00 65 1013.2
20260503174502 15 0 4.8 11.3 0.00 0.00 0.00 65 1013.2
20260503174003 16 0 3.2 8.0 0.00 0.00 0.00 67 1013.3
20260503173503 15 0 3.2 16.1 0.00 0.00 0.00 66 1013.2
20260503173002 15 0 3.2 16.1 0.00 0.00 0.00 68 1013.2
20260503172743 15 0 6.4 14.5 0.00 0.00 0.00 68 1013.3
20260503172002 15 0 4.8 11.3 0.00 0.00 0.00 69 1013.3
20260503171525 15 0 3.2 9.7 0.00 0.00 0.00 70 1013.3
20260503171515 15 0 3.2 8.0 0.00 0.00 0.00 69 1013.3
20260503170503 15 0 6.4 9.7 0.00 0.00 0.00 71 1013.4
20260503151000 12 0 1.6 6.4 0.00 0.00 0.00 82 1012.9
20260503150459 12 0 1.6 6.4 0.00 0.00 0.00 82 1012.7
20260503130957 12 0 0.0 1.6 0.00 0.00 0.00 81 1011.5
20260503130456 12 0 0.0 1.6 0.00 0.00 0.00 81 1011.5
20260503110757 12 0 0.0 3.2 0.00 0.00 0.00 77 1011.5
20260503110751 12 0 0.0 1.6 0.00 0.00 0.00 77 1011.6
20260503090450 12 0 0.0 8.0 0.00 0.00 0.00 76 1011.7
20260503081450 12 0 3.2 4.8 0.00 0.00 0.00 75 1012.1
20260503080949 12 0 1.6 8.0 0.00 0.00 0.00 75 1012.2
20260503080446 12 0 4.8 8.0 0.00 0.00 0.00 75 1012.3
20260503072447 12 0 3.2 6.4 0.00 0.00 0.00 75 1012.4
20260503071946 12 0 0.0 4.8 0.00 0.00 0.00 75 1012.4
20260503071724 12 0 1.6 4.8 0.00 0.00 0.00 75 1012.3
20260503070947 12 0 0.0 3.2 0.00 0.00 0.00 75 1012.3
20260503070727 12 0 0.0 4.8 0.00 0.00 0.00 75 1012.4
20260503054945 13 0 1.6 4.8 0.00 0.00 0.00 74 1012.8
20260503054445 13 0 0.0 3.2 0.00 0.00 0.00 74 1012.7
20260503053944 13 0 0.0 3.2 0.00 0.00 0.00 74 1012.7
20260503053445 13 0 0.0 4.8 0.00 0.00 0.00 74 1012.7
20260503052944 13 0 1.6 4.8 0.00 0.00 0.00 74 1012.7
20260503052445 13 0 1.6 4.8 0.00 0.00 0.00 74 1012.8
20260503051944 13 0 3.2 6.4 0.00 0.00 0.00 74 1012.8
20260503051443 13 0 1.6 8.0 0.00 0.00 0.00 74 1012.8
20260503050945 13 0 1.6 8.0 0.00 0.00 0.00 75 1012.7
20260503050444 13 0 3.2 8.0 0.00 0.00 0.00 74 1012.8
20260503045944 13 0 4.8 9.7 0.00 0.00 0.00 75 1012.8
20260503045723 13 0 3.2 9.7 0.00 0.00 0.00 75 1012.7
20260503044945 13 0 4.8 9.7 0.00 0.00 0.00 74 1012.7
20260503044443 13 0 3.2 8.0 0.00 0.00 0.00 74 1012.7
20260503043943 13 0 4.8 8.0 0.00 0.00 0.00 74 1012.6
20260503043443 13 0 3.2 6.4 0.00 0.00 0.00 74 1012.7
20260503042943 13 0 1.6 6.4 0.00 0.00 0.00 74 1012.6
20260503042443 13 0 1.6 6.4 0.00 0.00 0.00 73 1012.7
20260503041944 13 0 3.2 8.0 0.00 0.00 0.00 73 1012.6
20260503041819 13 0 3.2 9.7 0.00 0.00 0.00 73 1012.1
20260503041814 13 0 3.2 8.0 0.00 0.00 0.00 72 1012.4
20260503041531 13 0 1.6 8.0 0.00 0.00 0.00 72 1012.5
20260503041518 13 0 4.8 8.0 0.00 0.00 0.00 72 1012.6
20260503040349 13 0 0.0 6.4 0.00 0.00 0.00 72 1012.3
20260503040247 13 0 3.2 6.4 0.00 0.00 0.00 72 1012.2
20260503040145 13 0 1.6 8.0 0.00 0.00 0.00 72 1012.3
20260503034440 13 0 3.2 9.7 0.00 0.00 0.00 73 1012.1
20260503033940 13 0 4.8 9.7 0.00 0.00 0.00 72 1012.2
20260503033440 13 0 1.6 9.7 0.00 0.00 0.00 72 1012.1
20260503032940 13 0 3.2 8.0 0.00 0.00 0.00 72 1012.1
20260503032440 13 0 1.6 6.4 0.00 0.00 0.00 72 1012.1
20260503031939 13 0 1.6 8.0 0.00 0.00 0.00 72 1011.9
20260503031722 13 0 3.2 8.0 0.00 0.00 0.00 72 1012.0
20260503030939 13 0 0.0 11.3 0.00 0.00 0.00 72 1011.9
20260503030439 13 0 1.6 11.3 0.00 0.00 0.00 72 1011.8
20260503025939 13 0 4.8 9.7 0.00 0.00 0.00 71 1011.6
20260503025439 13 0 3.2 9.7 0.00 0.00 0.00 71 1011.7
20260503024939 13 0 1.6 9.7 0.00 0.00 0.00 71 1011.5
20260503024719 14 0 3.2 14.5 0.00 0.00 0.00 70 1011.5
20260503023938 14 0 3.2 14.5 0.00 0.00 0.00 69 1011.5
20260503023440 14 0 4.8 14.5 0.00 0.00 0.00 70 1011.4
20260503022939 14 0 3.2 11.3 0.00 0.00 0.00 69 1011.4
20260503022717 14 0 6.4 11.3 0.00 0.00 0.00 69 1011.4
20260503021940 14 0 1.6 9.7 0.00 0.00 0.00 69 1011.3
20260503021439 14 0 3.2 11.3 0.00 0.00 0.00 68 1011.3
20260503020939 15 0 6.4 14.5 0.00 0.00 0.00 68 1011.3
20260503020440 15 0 6.4 14.5 0.00 0.00 0.00 67 1011.4
20260503015939 15 0 4.8 19.3 0.00 0.00 0.00 67 1011.4
20260503015439 15 0 6.4 19.3 0.00 0.00 0.00 67 1011.4
20260503014939 15 0 4.8 14.5 0.00 0.00 0.00 67 1011.4
20260503014440 15 0 3.2 11.3 0.00 0.00 0.00 66 1011.4
20260503013939 15 0 3.2 11.3 0.00 0.00 0.00 66 1011.4
20260503013439 16 0 6.4 9.7 0.00 0.00 0.00 66 1011.5
20260503012938 16 0 3.2 11.3 0.00 0.00 0.00 67 1011.5
20260503012439 16 0 6.4 14.5 0.00 0.00 0.00 66 1011.5
20260503011938 16 0 6.4 14.5 0.00 0.00 0.00 65 1011.5
20260503011438 16 0 4.8 11.3 0.00 0.00 0.00 66 1011.5
20260503010937 16 0 4.8 11.3 0.00 0.00 0.00 66 1011.5
20260503010437 16 0 4.8 17.7 0.00 0.00 0.00 66 1011.5
20260503005937 16 0 6.4 17.7 0.00 0.00 0.00 65 1011.4
20260503005438 16 0 8.0 19.3 0.00 0.00 0.00 65 1011.4
20260503004937 17 0 8.0 19.3 0.00 0.00 0.00 65 1011.4
20260503004438 17 0 11.3 19.3 0.00 0.00 0.00 64 1011.5
20260503003937 17 0 6.4 16.1 0.00 0.00 0.00 64 1011.4
20260503003437 17 0 4.8 11.3 0.00 0.00 0.00 65 1011.4
20260503002936 17 0 4.8 11.3 0.00 0.00 0.00 65 1011.4
20260503002435 17 0 4.8 14.5 0.00 0.00 0.00 63 1011.5
20260503001935 17 0 3.2 14.5 0.00 0.00 0.00 65 1011.5
20260503001435 17 0 6.4 9.7 0.00 0.00 0.00 63 1011.5
20260503000935 18 0 3.2 11.3 0.00 0.00 0.00 64 1011.5
20260503000437 17 0 6.4 11.3 0.00 0.00 0.00 63 1011.5
20260502235935 18 0 4.8 11.3 0.00 0.00 0.00 62 1011.5
20260502235435 18 0 4.8 16.1 0.00 0.00 0.00 61 1011.6
20260502234935 17 0 3.2 16.1 0.00 0.00 0.00 63 1011.6
20260502234435 18 0 6.4 11.3 0.00 0.00 0.00 61 1011.5
20260502234215 18 0 4.8 16.1 0.00 0.00 0.00 61 1011.7
20260502233434 18 0 4.8 16.1 0.00 0.00 0.00 62 1011.6
20260502233214 18 0 3.2 14.5 0.00 0.00 0.00 61 1011.8
20260502232715 18 0 3.2 14.5 0.00 0.00 0.00 62 1011.6
20260502231933 18 0 3.2 11.3 0.00 0.00 0.00 62 1011.7
20260502231434 18 0 4.8 9.7 0.00 0.00 0.00 61 1011.8
20260502230933 18 0 4.8 9.7 0.00 0.00 0.00 62 1011.8
20260502230433 18 0 6.4 17.7 0.00 0.00 0.00 62 1012.0
20260502230241 18 0 3.2 11.3 0.00 0.00 0.00 62 1012.1
20260502225950 18 0 4.8 17.7 0.00 0.00 0.00 62 1012.0
20260502224934 18 0 6.4 11.3 0.00 0.00 0.00 62 1012.1
20260502224434 19 0 6.4 11.3 0.00 0.00 0.00 61 1012.2
20260502223935 19 0 1.6 14.5 0.00 0.00 0.00 61 1012.3
20260502223434 19 0 3.2 14.5 0.00 0.00 0.00 62 1012.4
20260502222933 19 0 4.8 8.0 0.00 0.00 0.00 61 1012.3
20260502222433 19 0 3.2 8.0 0.00 0.00 0.00 62 1012.3
20260502221932 18 0 4.8 9.7 0.00 0.00 0.00 63 1012.5
20260502221432 18 0 3.2 11.3 0.00 0.00 0.00 63 1012.6
20260502220932 18 0 4.8 11.3 0.00 0.00 0.00 63 1012.8
20260502220712 18 0 3.2 11.3 0.00 0.00 0.00 64 1012.8
20260502215931 18 0 6.4 11.3 0.00 0.00 0.00 63 1012.8
20260502215430 18 0 6.4 11.3 0.00 0.00 0.00 63 1012.9
20260502214931 18 0 3.2 9.7 0.00 0.00 0.00 63 1012.9
20260502214432 18 0 4.8 9.7 0.00 0.00 0.00 63 1013.0
20260502214212 18 0 6.4 9.7 0.00 0.00 0.00 63 1013.0
20260502213431 18 0 6.4 9.7 0.00 0.00 0.00 62 1013.0
20260502212931 18 0 3.2 9.7 0.00 0.00 0.00 64 1013.0
20260502212712 18 0 4.8 14.5 0.00 0.00 0.00 63 1013.1
20260502212213 18 0 8.0 14.5 0.00 0.00 0.00 62 1013.1
20260502211432 18 0 3.2 11.3 0.00 0.00 0.00 63 1013.2